Bellmunt





Hora UTC 01:55
Temperatura 19.7 ºC
Humedad 26.0 %
Presión 1003.9 hPa
Pluja 0.0 mm
Velocidad viento 0.0 km/h
Dirección viento SW

Datos diarios 2022-05-23



Hora UTC (invierno +1h; verano +2h)
Temperatura (ºC) Humedad (%) Presión (hPa) Velocidad viento (km/h) Precipitación (mm)
Hora UTC Aire Humedad Presión Vel. Dir. Vel. Max Dir. Intent. máx 5 min.
00:05 21.1 21.0 1004.7 0.0 WSW 0.0 0.0
00:10 21.1 21.0 1004.3 0.0 WSW 6.4 0.0
00:15 21.1 22.0 1004.4 0.0 SW 6.4 0.0
00:20 21.1 21.0 1004.5 0.0 W 11.3 0.0
00:25 21.0 21.0 1004.6 1.6 SW 11.3 0.0
00:30 20.8 22.0 1004.5 0.0 WSW 6.4 0.0
00:35 20.6 23.0 1004.5 0.0 W 6.4 0.0
00:40 20.4 23.0 1004.5 0.0 W 3.2 0.0
00:45 20.3 23.0 1004.1 0.0 S 0.0 0.0
00:50 20.3 23.0 1004.0 0.0 WSW 0.0 0.0
00:55 20.3 25.0 1003.9 0.0 W 4.8 0.0
01:00 20.5 26.0 1003.8 0.0 W 4.8 0.0
01:05 20.5 25.0 1003.9 0.0 S 3.2 0.0
01:10 20.3 24.0 1004.0 0.0 S 3.2 0.0
01:15 20.0 24.0 1003.9 0.0 W 0.0 0.0
01:20 20.1 28.0 1003.8 0.0 W 1.6 0.0
01:25 20.1 28.0 1003.6 3.2 W 9.7 0.0
01:30 19.9 25.0 1003.5 0.0 WNW 11.3 0.0
01:35 19.6 25.0 1003.6 0.0 WNW 11.3 0.0
01:40 19.7 26.0 1003.8 0.0 W 12.9 0.0
01:45 19.8 26.0 1003.9 0.0 W 12.9 0.0
01:50 19.9 26.0 1003.9 0.0 SW 6.4 0.0
01:55 19.7 26.0 1003.9 0.0 SW 0.0 0.0
Máxima 21.6 28.0 1004.7 3.2 W 12.9 0.0
Mínima 19.6 21.0 1003.5
Total 0.0